Flag Weather past 2 weeks in Düsseldorf, North Rhine-Westphalia, Germany

Now
46 °F

Broken clouds.


Feels Like: 40 °F
Forecast: 42 / 52 °F
Wind: 14 mph from Southeast

Location: Duesseldorf

Current Time: Nov 27, 2014 at 11:57:53 AM

Latest Report: Nov 27, 2014 at 11:20 AM


Visibility: N/A

Pressure: 29.80 "Hg

Humidity: 71%

Dew point: 37 °F

Location of DüsseldorfLocation

Historic Weather in Düsseldorf — Graph

°F

Düsseldorf temperature yesterday

Maximum temperature yesterday: 45 °F (at 12:50 PM)
Minimum temperature yesterday: 34 °F (at 12:20 AM)
Average temperature yesterday: 41 °F

Past Weeks' High & Low Weather Summary

 TemperatureHumidityPressure
High59 °F (Nov 23, 1:50 PM)100% (Nov 13, 2:50 AM)30.33 "Hg (Nov 13, 2:50 AM)
Low30 °F (Nov 25, 3:50 AM)58% (Nov 21, 1:50 PM)29.50 "Hg (Nov 16, 4:20 PM)
Average47 °F84%29.94 "Hg
* Reported Nov 12 10:20 AM — Nov 27 10:50 AM, Düsseldorf, Weather by CustomWeather, © 2014

Note: Actual official high and low records may vary slightly from our data, if they occured in-between our weather recording intervals... More about our weather records

Advertising

Düsseldorf weather history for previous 24 hours

 ConditionsComfort  
Time TempWeatherWind HumidityBarometerVisibility
10:50 AM
Nov 27
46 °FPartly sunny.15 mph71%29.80 "HgN/A
10:20 AM46 °FPartly sunny.13 mph71%29.80 "HgN/A
9:50 AM45 °FBroken clouds.14 mph76%29.80 "HgN/A
9:20 AM45 °FBroken clouds.14 mph76%29.80 "HgN/A
8:50 AM45 °FPartly sunny.15 mph76%29.80 "HgN/A
8:20 AM45 °FBroken clouds.13 mph76%29.80 "HgN/A
7:50 AM45 °FPartly cloudy.12 mph76%29.80 "HgN/A
7:20 AM45 °FPartly cloudy.10 mph76%29.80 "HgN/A
6:50 AM43 °FPassing clouds.12 mph76%29.80 "HgN/A
6:20 AM43 °FPassing clouds.12 mph76%29.80 "HgN/A
5:50 AM45 °FPartly cloudy.12 mph76%29.80 "HgN/A
5:20 AM43 °FPartly cloudy.13 mph76%29.80 "HgN/A
4:50 AM45 °FPartly cloudy.10 mph76%29.83 "HgN/A
4:20 AM43 °FPartly cloudy.9 mph81%29.83 "HgN/A
3:50 AM43 °FPartly cloudy.12 mph81%29.83 "HgN/A
3:20 AM43 °FPartly cloudy.12 mph81%29.83 "HgN/A
2:50 AM43 °FPassing clouds.14 mph81%29.83 "HgN/A
2:20 AM43 °FPassing clouds.14 mph81%29.86 "HgN/A
1:50 AM43 °FPassing clouds.15 mph81%29.86 "HgN/A
1:20 AM43 °FPassing clouds.15 mph81%29.86 "HgN/A
12:50 AM43 °FPassing clouds.16 mph81%29.89 "HgN/A
12:20 AM43 °FPassing clouds.17 mph81%29.89 "HgN/A
11:50 PM
Nov 26
43 °FPassing clouds.15 mph81%29.89 "HgN/A
11:20 PM43 °FPassing clouds.17 mph76%29.89 "HgN/A
10:50 PM43 °FPassing clouds.15 mph76%29.89 "HgN/A
10:20 PM43 °FPassing clouds.15 mph76%29.89 "HgN/A
9:50 PM43 °FPassing clouds.15 mph76%29.92 "HgN/A
9:20 PM43 °FPassing clouds.16 mph76%29.92 "HgN/A
8:50 PM43 °FPassing clouds.16 mph76%29.92 "HgN/A
8:20 PM43 °FPassing clouds.16 mph76%29.92 "HgN/A
7:50 PM43 °FPassing clouds.15 mph76%29.92 "HgN/A
7:20 PM43 °FPassing clouds.16 mph76%29.92 "HgN/A
6:50 PM43 °FPassing clouds.15 mph76%29.92 "HgN/A
6:20 PM43 °FPartly cloudy.14 mph76%29.92 "HgN/A
5:50 PM43 °FPassing clouds.13 mph76%29.92 "HgN/A
5:20 PM43 °FPartly cloudy.14 mph76%29.92 "HgN/A
4:50 PM43 °FLight rain. Partly cloudy.14 mph76%29.92 "HgN/A
4:20 PM43 °FLight rain. Broken clouds.9 mph76%29.92 "HgN/A
3:50 PM45 °FLight rain. Broken clouds.14 mph71%29.95 "HgN/A
3:20 PM45 °FLight rain. Partly sunny.13 mph71%29.95 "HgN/A
2:50 PM45 °FSunny.13 mph71%29.95 "Hg10 mi
2:20 PM45 °FSunny.14 mph66%29.95 "Hg10 mi
1:50 PM45 °FSunny.13 mph66%29.95 "Hg10 mi
1:20 PM45 °FSunny.10 mph71%29.98 "Hg10 mi
12:50 PM45 °FSunny.14 mph66%29.98 "Hg10 mi
12:20 PM43 °FSunny.12 mph71%29.98 "Hg10 mi
11:50 AM43 °FSunny.14 mph71%29.98 "Hg10 mi
11:20 AM43 °FSunny.16 mph71%30.01 "Hg10 mi
Weather by CustomWeather, © 2014

See weather overviewHow to use our weather pages